Terminal Aerodrome Forecast
Issued by NWS

Home | Current Version | Previous Version | Graphics & Text | Print | Product List | Glossary On
Versions: 1 2 3 4 5 6 7 8 9 10 11 12 13 14 15 16 17 18 19 20 21 22 23 24 25
000
FTUS43 KABR 151100
TAFATY
TAF
KATY 151133Z 1512/1612 14009KT P6SM SKC
     FM151700 15019G28KT P6SM BKN100
     FM160600 12017G24KT P6SM VCSH OVC080
     FM161000 09016G25KT 5SM -RA BR OVC040=

USA.gov is the U.S. government's official web portal to all federal, state and local government web resources and services.